{"data":{"norad_id":35683,"epoch":"2026-05-25T04:14:31.522272Z","epoch_age_seconds":59463,"freshness":"FRESH","line1":"1 35683U 09041C   26145.17675373  .00000177  00000+0  32869-4 0  9992","line2":"2 35683  97.8802 280.7105 0001522  77.4845 282.6535 14.75982754903172","mean_motion":14.75982754,"eccentricity":0.0001522,"inclination_deg":97.8802,"raan_deg":280.7105,"arg_perigee_deg":77.4845,"mean_anomaly_deg":282.6535,"bstar":3.2869e-5,"rev_number":90317,"period_min":97.562115553011,"perigee_km":640.96491034636,"apogee_km":643.10185021012,"semimajor_km":7020.1703802782,"source":"CELESTRAK","updated_at":"2026-05-25T13:38:13.163654Z"}}